Weather History for Siloam Springs, AR

Change the Weather History Date:

Wednesday, February 6, 2013

  Actual Average Record
Temperature  
Mean Temperature 52 °F -  
Max Temperature 64 °F 46 °F 66 °F (2007)
Min Temperature 39 °F 29 °F 6 °F (2014)
Degree Days  
Heating Degree Days 14    
Growing Degree Days 2 (Base 50)    
Moisture  
Dew Point 34 °F    
Average Humidity 55    
Maximum Humidity 66    
Minimum Humidity 37    
Precipitation  
Precipitation 0.01 in - - ()
Sea Level Pressure  
Sea Level Pressure 30.03 in    
Wind  
Wind Speed 9 mph (SE)    
Max Wind Speed 20 mph    
Max Gust Speed 25 mph    
Visibility 10 miles    
Events      
Averages and records for this station are not official NWS values.
T = Trace of Precipitation, MM = Missing Value Source: NWS Daily Summary

Daily Weather History Graph

Daily Weather History Graph

Search for Another Location

Airport:

Trip Planner

Search our weather history database for the weather conditions in past years. The results will help you decide how hot, cold, wet, or windy it might be!

Date:

Astronomy

Feb. 06, 2013 Rise Set
Actual Time 7:14 AM CST 5:50 PM CST
Civil Twilight 6:47 AM CST 6:16 PM CST
Nautical Twilight 6:17 AM CST 6:47 PM CST
Astronomical Twilight 5:47 AM CST 7:17 PM CST
Moon 3:55 AM CST (2/6) 2:12 PM CST (2/6)
Length of Visible Light 11h 29m
Length of Day
10h 35m
Waning Crescent, 17% of the Moon is Illuminated
Feb 6
Waning Crescent
Feb 10
New
Feb 17
First Quarter
Feb 25
Full
Mar 4
Last Quarter

Hourly Weather History & Observations

Time (CST) Temp. Windchill Dew Point Humidity Pressure Visibility Wind Dir Wind Speed Gust Speed Precip Events Conditions
12:55 AM 42.8 °F 39.3 °F 28.4 °F 57% 30.09 in 10.0 mi East 5.8 mph - N/A   Clear
1:15 AM 41.0 °F 37.1 °F 28.4 °F 61% 30.09 in 10.0 mi ENE 5.8 mph - N/A   Clear
1:35 AM 41.0 °F 37.1 °F 28.4 °F 61% 30.09 in 10.0 mi East 5.8 mph - N/A   Clear
1:55 AM 42.8 °F 39.3 °F 28.4 °F 57% 30.09 in 10.0 mi East 5.8 mph - N/A   Clear
1:56 AM 42.8 °F 39.3 °F 28.4 °F 57% 30.09 in 10.0 mi East 5.8 mph - N/A   Clear
2:15 AM 42.8 °F 39.3 °F 28.4 °F 57% 30.09 in 10.0 mi East 5.8 mph - N/A   Clear
2:55 AM 42.8 °F 37.5 °F 28.4 °F 57% 30.08 in 10.0 mi East 9.2 mph - N/A   Clear
3:15 AM 42.8 °F 38.6 °F 28.4 °F 57% 30.08 in 10.0 mi East 6.9 mph - N/A   Clear
3:35 AM 42.8 °F 38.0 °F 28.4 °F 57% 30.08 in 10.0 mi East 8.1 mph - N/A   Clear
3:55 AM 41.0 °F 35.8 °F 28.4 °F 61% 30.07 in 10.0 mi East 8.1 mph - N/A   Clear
4:16 AM 42.8 °F 38.0 °F 28.4 °F 57% 30.07 in 10.0 mi East 8.1 mph - N/A   Clear
4:35 AM 42.8 °F 37.5 °F 28.4 °F 57% 30.07 in 10.0 mi East 9.2 mph - N/A   Clear
4:55 AM 41.0 °F 35.8 °F 28.4 °F 61% 30.07 in 10.0 mi East 8.1 mph - N/A   Clear
5:35 AM 39.2 °F 34.2 °F 28.4 °F 65% 30.09 in 10.0 mi East 6.9 mph - N/A   Clear
6:15 AM 39.2 °F 34.2 °F 28.4 °F 65% 30.10 in 10.0 mi East 6.9 mph - N/A   Clear
6:36 AM 39.2 °F 34.2 °F 28.4 °F 65% 30.10 in 10.0 mi East 6.9 mph - N/A   Clear
6:55 AM 39.2 °F 33.6 °F 28.4 °F 65% 30.11 in 10.0 mi East 8.1 mph - N/A   Clear
7:55 AM 41.0 °F 35.8 °F 28.4 °F 61% 30.11 in 10.0 mi East 8.1 mph - N/A   Clear
8:15 AM 42.8 °F 38.0 °F 30.2 °F 61% 30.11 in 10.0 mi East 8.1 mph - N/A   Clear
8:56 AM 44.6 °F 40.2 °F 30.2 °F 57% 30.11 in 10.0 mi East 8.1 mph - N/A   Partly Cloudy
9:15 AM 46.4 °F 43.5 °F 30.2 °F 53% 30.11 in 10.0 mi East 5.8 mph - N/A   Mostly Cloudy
9:35 AM 48.2 °F - 32.0 °F 54% 30.11 in 10.0 mi East 8.1 mph - N/A   Scattered Clouds
10:35 AM 55.4 °F - 35.6 °F 47% 30.11 in 10.0 mi SE 9.2 mph - N/A   Clear
10:55 AM 55.4 °F - 35.6 °F 47% 30.11 in 10.0 mi SSE 11.5 mph - N/A   Scattered Clouds
11:35 AM 59.0 °F - 37.4 °F 45% 30.09 in 10.0 mi SE 12.7 mph - N/A   Clear
12:35 PM 62.6 °F - 39.2 °F 42% 30.05 in 10.0 mi SSE 11.5 mph 21.9 mph N/A   Clear
12:55 PM 62.6 °F - 39.2 °F 42% 30.04 in 10.0 mi South 19.6 mph 25.3 mph N/A   Clear
1:15 PM 64.4 °F - 39.2 °F 40% 30.03 in 10.0 mi South 16.1 mph 21.9 mph N/A   Clear
1:36 PM 62.6 °F - 39.2 °F 42% 30.02 in 10.0 mi South 9.2 mph - N/A   Clear
1:55 PM 64.4 °F - 39.2 °F 40% 30.01 in 10.0 mi SSE 13.8 mph 21.9 mph N/A   Clear
2:15 PM 64.4 °F - 37.4 °F 37% 30.00 in 10.0 mi South 17.3 mph - N/A   Partly Cloudy
2:55 PM 62.6 °F - 37.4 °F 39% 30.00 in 10.0 mi SSE 15.0 mph 20.7 mph N/A   Clear
3:15 PM 62.6 °F - 37.4 °F 39% 29.99 in 10.0 mi South 13.8 mph 19.6 mph N/A   Clear
3:35 PM 62.6 °F - 37.4 °F 39% 29.98 in 10.0 mi SSE 15.0 mph 23.0 mph N/A   Scattered Clouds
3:55 PM 62.6 °F - 39.2 °F 42% 29.98 in 10.0 mi SSE 15.0 mph 20.7 mph N/A   Mostly Cloudy
4:15 PM 60.8 °F - 37.4 °F 42% 29.99 in 10.0 mi SSE 17.3 mph 21.9 mph N/A   Mostly Cloudy
4:35 PM 59.0 °F - 37.4 °F 45% 29.98 in 10.0 mi SSE 11.5 mph - N/A   Overcast
4:55 PM 59.0 °F - 35.6 °F 42% 29.98 in 10.0 mi South 11.5 mph - N/A   Overcast
5:16 PM 57.2 °F - 33.8 °F 41% 29.98 in 10.0 mi SSE 16.1 mph 21.9 mph N/A   Overcast
5:35 PM 55.4 °F - 37.4 °F 51% 29.98 in 10.0 mi SSE 11.5 mph 23.0 mph N/A   Overcast
5:55 PM 53.6 °F - 39.2 °F 58% 29.98 in 10.0 mi SE 17.3 mph 21.9 mph N/A   Overcast
6:15 PM 51.8 °F - 39.2 °F 62% 29.98 in 10.0 mi SE 12.7 mph 19.6 mph 0.01 in   Mostly Cloudy
6:35 PM 50.0 °F - 39.2 °F 66% 29.98 in 10.0 mi SE 9.2 mph - 0.01 in   Partly Cloudy
6:55 PM 51.8 °F - 39.2 °F 62% 29.97 in 10.0 mi SSE 12.7 mph - 0.01 in   Clear
7:15 PM 51.8 °F - 39.2 °F 62% 29.97 in 10.0 mi SE 10.4 mph - N/A   Clear
7:55 PM 50.0 °F - 37.4 °F 62% 29.97 in 10.0 mi SE 9.2 mph - N/A   Clear
8:15 PM 50.0 °F - 37.4 °F 62% 29.97 in 10.0 mi SE 8.1 mph - N/A   Clear
8:35 PM 50.0 °F - 37.4 °F 62% 29.97 in 10.0 mi SE 9.2 mph - N/A   Clear
8:55 PM 50.0 °F - 37.4 °F 62% 29.98 in 10.0 mi SE 9.2 mph - N/A   Clear
8:56 PM 50.0 °F - 37.4 °F 62% 29.98 in 10.0 mi SE 8.1 mph - N/A   Clear
9:15 PM 48.2 °F - 37.4 °F 66% 29.97 in 10.0 mi SE 11.5 mph - N/A   Clear
9:35 PM 50.0 °F - 37.4 °F 62% 29.97 in 10.0 mi SE 12.7 mph - N/A   Clear
9:56 PM 50.0 °F - 37.4 °F 62% 29.98 in 10.0 mi SSE 10.4 mph - N/A   Clear
10:15 PM 48.2 °F - 37.4 °F 66% 29.98 in 10.0 mi SE 9.2 mph - N/A   Mostly Cloudy
10:35 PM 50.0 °F - 37.4 °F 62% 29.98 in 10.0 mi SSE 9.2 mph - N/A   Mostly Cloudy
10:56 PM 48.2 °F - 37.4 °F 66% 29.98 in 10.0 mi SSE 8.1 mph - N/A   Partly Cloudy
11:15 PM 48.2 °F - 37.4 °F 66% 29.97 in 10.0 mi SSE 8.1 mph - N/A   Mostly Cloudy
11:35 PM 48.2 °F - 37.4 °F 66% 29.97 in 10.0 mi SSE 6.9 mph - N/A   Partly Cloudy
11:56 PM 48.2 °F - 37.4 °F 66% 29.97 in 10.0 mi SSE 9.2 mph - N/A   Mostly Cloudy